isotime,frequency
2022-11-21 07:48:06.500,50269
2022-11-21 07:48:07.500,50346
2022-11-21 07:48:08.500,50360
2022-11-21 07:48:09.500,49776
2022-11-21 07:48:10.500,50404
2022-11-21 07:48:11.500,50717
2022-11-21 07:48:12.500,49492
2022-11-21 07:48:13.500,50294
2022-11-21 07:48:14.500,49663
2022-11-21 07:48:15.500,50365
2022-11-21 07:48:16.500,49475
2022-11-21 07:48:17.500,50398
2022-11-21 07:48:18.500,50718
2022-11-21 07:48:19.500,49577
2022-11-21 07:48:20.500,49351
2022-11-21 07:48:21.500,49412
2022-11-21 07:48:22.500,50483
2022-11-21 07:48:23.500,49766
2022-11-21 07:48:24.500,50298
2022-11-21 07:48:25.500,50693
2022-11-21 07:48:26.500,50617
2022-11-21 07:48:27.500,50813
2022-11-21 07:48:28.500,50512
2022-11-21 07:48:29.500,49557
2022-11-21 07:48:30.500,49251
2022-11-21 07:48:31.500,50461
2022-11-21 07:48:32.500,50745
2022-11-21 07:48:33.500,50276
2022-11-21 07:48:34.500,49643
2022-11-21 07:48:35.500,49741
2022-11-21 07:48:36.500,50665
2022-11-21 07:48:37.500,48457
2022-11-21 07:48:38.500,49674
2022-11-21 07:48:39.500,50566
2022-11-21 07:48:40.500,50314
2022-11-21 07:48:41.500,50268
2022-11-21 07:48:42.500,50742
2022-11-21 07:48:43.500,49545
2022-11-21 07:48:44.500,49684
2022-11-21 07:48:45.500,50476
2022-11-21 07:48:46.500,50737
2022-11-21 07:48:47.500,50798
2022-11-21 07:48:48.500,49557
2022-11-21 07:48:49.500,50918
2022-11-21 07:48:50.500,50309
2022-11-21 07:48:51.500,50476
2022-11-21 07:48:52.500,49419
2022-11-21 07:48:53.500,49443
2022-11-21 07:48:54.500,50731
2022-11-21 07:48:55.500,49335
2022-11-21 07:48:56.500,50624
2022-11-21 07:48:57.500,50933
2022-11-21 07:48:58.500,50769
2022-11-21 07:48:59.500,50795
2022-11-21 07:49:00.500,244
2022-11-21 07:49:01.500,50588
2022-11-21 07:49:02.500,49267
2022-11-21 07:49:03.500,50387
2022-11-21 07:49:04.500,49491
2022-11-21 07:49:05.500,243
2022-11-21 07:49:06.500,49551
2022-11-21 07:49:07.500,243
2022-11-21 07:49:08.500,242
2022-11-21 07:49:09.500,242
2022-11-21 07:49:10.500,242
2022-11-21 07:49:11.500,242
2022-11-21 07:49:12.500,242
2022-11-21 07:49:13.500,242
2022-11-21 07:49:14.500,242
2022-11-21 07:49:15.500,242
2022-11-21 07:49:16.500,242
2022-11-21 07:49:17.500,242
2022-11-21 07:49:18.500,242
2022-11-21 07:49:19.500,242
2022-11-21 07:49:20.500,241
2022-11-21 07:49:21.500,241
2022-11-21 07:49:22.500,241
2022-11-21 07:49:23.500,241
2022-11-21 07:49:24.500,241
2022-11-21 07:49:25.500,241
2022-11-21 07:49:26.500,241
2022-11-21 07:49:27.500,241
2022-11-21 07:49:28.500,241
2022-11-21 07:49:29.500,240
2022-11-21 07:49:30.500,240
2022-11-21 07:49:31.500,240
2022-11-21 07:49:32.500,240
2022-11-21 07:49:33.500,240
2022-11-21 07:49:34.500,240
2022-11-21 07:49:35.500,240
2022-11-21 07:49:36.500,240
2022-11-21 07:49:37.500,240
2022-11-21 07:49:38.500,239
2022-11-21 07:49:39.500,239
2022-11-21 07:49:40.500,239
2022-11-21 07:49:41.500,239
2022-11-21 07:49:42.500,239
2022-11-21 07:49:43.500,239
2022-11-21 07:49:44.500,239
2022-11-21 07:49:45.500,239
2022-11-21 07:49:46.500,239
2022-11-21 07:49:47.500,239
2022-11-21 07:49:48.500,238
2022-11-21 07:49:49.500,238
2022-11-21 07:49:50.500,238
2022-11-21 07:49:51.500,238
2022-11-21 07:49:52.500,238
2022-11-21 07:49:53.500,238
2022-11-21 07:49:54.500,238
2022-11-21 07:49:55.500,238
2022-11-21 07:49:56.500,238
2022-11-21 07:49:57.500,237
2022-11-21 07:49:58.500,237
2022-11-21 07:49:59.500,237
2022-11-21 07:50:00.500,237
2022-11-21 07:50:01.500,237
2022-11-21 07:50:02.500,237
2022-11-21 07:50:03.500,237
2022-11-21 07:50:04.500,237
2022-11-21 07:50:05.500,237
2022-11-21 07:50:06.500,237
2022-11-21 07:50:07.500,236
2022-11-21 07:50:08.500,236
2022-11-21 07:50:09.500,236
2022-11-21 07:50:10.500,236
2022-11-21 07:50:11.500,236
2022-11-21 07:50:12.500,236
2022-11-21 07:50:13.500,236
2022-11-21 07:50:14.500,236
2022-11-21 07:50:15.500,236
2022-11-21 07:50:16.500,235
2022-11-21 07:50:17.500,235
2022-11-21 07:50:18.500,235
2022-11-21 07:50:19.500,235
2022-11-21 07:50:20.500,235
2022-11-21 07:50:21.500,235
2022-11-21 07:50:22.500,235
2022-11-21 07:50:23.500,235
2022-11-21 07:50:24.500,235
2022-11-21 07:50:25.500,235
2022-11-21 07:50:26.500,234
2022-11-21 07:50:27.500,234
2022-11-21 07:50:28.500,234
2022-11-21 07:50:29.500,234
2022-11-21 07:50:30.500,234
2022-11-21 07:50:31.500,234
2022-11-21 07:50:32.500,234
2022-11-21 07:50:33.500,234
2022-11-21 07:50:34.500,234
2022-11-21 07:50:35.500,233
2022-11-21 07:50:36.500,233
2022-11-21 07:50:37.500,233
2022-11-21 07:50:38.500,233
2022-11-21 07:50:39.500,233
2022-11-21 07:50:40.500,233
2022-11-21 07:50:41.500,233
2022-11-21 07:50:42.500,233
2022-11-21 07:50:43.500,233
2022-11-21 07:50:44.500,233
2022-11-21 07:50:45.500,232
2022-11-21 07:50:46.500,232
2022-11-21 07:50:47.500,232
2022-11-21 07:50:48.500,232
2022-11-21 07:50:49.500,232
2022-11-21 07:50:50.500,232
2022-11-21 07:50:51.500,232
2022-11-21 07:50:52.500,232
2022-11-21 07:50:53.500,232
2022-11-21 07:50:54.500,231
2022-11-21 07:50:55.500,231
2022-11-21 07:50:56.500,231
2022-11-21 07:50:57.500,231
2022-11-21 07:50:58.500,231
2022-11-21 07:50:59.500,231
2022-11-21 07:51:00.500,231
2022-11-21 07:51:01.500,231
2022-11-21 07:51:02.500,231
2022-11-21 07:51:03.500,231
2022-11-21 07:51:04.500,230
2022-11-21 07:51:05.500,230
2022-11-21 07:51:06.500,230
2022-11-21 07:51:07.500,230
2022-11-21 07:51:08.500,230
2022-11-21 07:51:09.500,230
2022-11-21 07:51:10.500,230
2022-11-21 07:51:11.500,230
2022-11-21 07:51:12.500,230
2022-11-21 07:51:13.500,229
2022-11-21 07:51:14.500,229
2022-11-21 07:51:15.500,229
2022-11-21 07:51:16.500,229
2022-11-21 07:51:17.500,229
2022-11-21 07:51:18.500,229
2022-11-21 07:51:19.500,229
2022-11-21 07:51:20.500,229
2022-11-21 07:51:21.500,229
2022-11-21 07:51:22.500,229
2022-11-21 07:51:23.500,228
2022-11-21 07:51:24.500,228
2022-11-21 07:51:25.500,228
2022-11-21 07:51:26.500,228
2022-11-21 07:51:27.500,228
2022-11-21 07:51:28.500,228
2022-11-21 07:51:29.500,228
2022-11-21 07:51:30.500,228
2022-11-21 07:51:31.500,228
2022-11-21 07:51:32.500,227
2022-11-21 07:51:33.500,227
2022-11-21 07:51:34.500,227
2022-11-21 07:51:35.500,227
2022-11-21 07:51:36.500,227
2022-11-21 07:51:37.500,227
2022-11-21 07:51:38.500,227
2022-11-21 07:51:39.500,227
2022-11-21 07:51:40.500,227
2022-11-21 07:51:41.500,226
2022-11-21 07:51:42.500,226
2022-11-21 07:51:43.500,226
2022-11-21 07:51:44.500,226
2022-11-21 07:51:45.500,226
2022-11-21 07:51:46.500,226
2022-11-21 07:51:47.500,226
2022-11-21 07:51:48.500,226
2022-11-21 07:51:49.500,226
2022-11-21 07:51:50.500,226
2022-11-21 07:51:51.500,225
2022-11-21 07:51:52.500,225
2022-11-21 07:51:53.500,225
2022-11-21 07:51:54.500,225
2022-11-21 07:51:55.500,225
2022-11-21 07:51:56.500,225
2022-11-21 07:51:57.500,225
2022-11-21 07:51:58.500,225
2022-11-21 07:51:59.500,225
2022-11-21 07:52:00.500,224
2022-11-21 07:52:01.500,224
2022-11-21 07:52:02.500,224
2022-11-21 07:52:03.500,224
2022-11-21 07:52:04.500,224
2022-11-21 07:52:05.500,224
2022-11-21 07:52:06.500,224
2022-11-21 07:52:07.500,224
2022-11-21 07:52:08.500,224
2022-11-21 07:52:09.500,224
2022-11-21 07:52:10.500,223
2022-11-21 07:52:11.500,223
2022-11-21 07:52:12.500,223
2022-11-21 07:52:13.500,223
2022-11-21 07:52:14.500,223
2022-11-21 07:52:15.500,223
2022-11-21 07:52:16.500,223
2022-11-21 07:52:17.500,223
2022-11-21 07:52:18.500,223
2022-11-21 07:52:19.500,222
2022-11-21 07:52:20.500,222
2022-11-21 07:52:21.500,222
2022-11-21 07:52:22.500,222
2022-11-21 07:52:23.500,222
2022-11-21 07:52:24.500,222
2022-11-21 07:52:25.500,222
2022-11-21 07:52:26.500,222
2022-11-21 07:52:27.500,222
2022-11-21 07:52:28.500,221
2022-11-21 07:52:29.500,221
2022-11-21 07:52:30.500,221
2022-11-21 07:52:31.500,221
2022-11-21 07:52:32.500,221
2022-11-21 07:52:33.500,221
2022-11-21 07:52:34.500,221
2022-11-21 07:52:35.500,221
2022-11-21 07:52:36.500,221
2022-11-21 07:52:37.500,221
2022-11-21 07:52:38.500,220
2022-11-21 07:52:39.500,220
2022-11-21 07:52:40.500,220
2022-11-21 07:52:41.500,220
2022-11-21 07:52:42.500,220
2022-11-21 07:52:43.500,220
2022-11-21 07:52:44.500,220
2022-11-21 07:52:45.500,220
2022-11-21 07:52:46.500,220
2022-11-21 07:52:47.500,219
2022-11-21 07:52:48.500,219
2022-11-21 07:52:49.500,219
2022-11-21 07:52:50.500,219
2022-11-21 07:52:51.500,219
2022-11-21 07:52:52.500,219
2022-11-21 07:52:53.500,219
2022-11-21 07:52:54.500,219
2022-11-21 07:52:55.500,219
2022-11-21 07:52:56.500,219
2022-11-21 07:52:57.500,218
2022-11-21 07:52:58.500,218
2022-11-21 07:52:59.500,218
2022-11-21 07:53:00.500,218
2022-11-21 07:53:01.500,218
2022-11-21 07:53:02.500,218
2022-11-21 07:53:03.500,218
2022-11-21 07:53:04.500,218
2022-11-21 07:53:05.500,218
2022-11-21 07:53:06.500,217
2022-11-21 07:53:07.500,217
2022-11-21 07:53:08.500,217
2022-11-21 07:53:09.500,217
2022-11-21 07:53:10.500,217
2022-11-21 07:53:11.500,217
2022-11-21 07:53:12.500,217
2022-11-21 07:53:13.500,217
2022-11-21 07:53:14.500,217
2022-11-21 07:53:15.500,216
2022-11-21 07:53:16.500,216
2022-11-21 07:53:17.500,216
2022-11-21 07:53:18.500,216
2022-11-21 07:53:19.500,216
2022-11-21 07:53:20.500,216
2022-11-21 07:53:21.500,216
2022-11-21 07:53:22.500,216
2022-11-21 07:53:23.500,216
2022-11-21 07:53:24.500,216
2022-11-21 07:53:25.500,215
2022-11-21 07:53:26.500,215
2022-11-21 07:53:27.500,215
2022-11-21 07:53:28.500,215
2022-11-21 07:53:29.500,215
2022-11-21 07:53:30.500,215
2022-11-21 07:53:31.500,215
2022-11-21 07:53:32.500,215
2022-11-21 07:53:33.500,215
2022-11-21 07:53:34.500,214
2022-11-21 07:53:35.500,214
2022-11-21 07:53:36.500,214
2022-11-21 07:53:37.500,214
2022-11-21 07:53:38.500,214
2022-11-21 07:53:39.500,214
2022-11-21 07:53:40.500,214
2022-11-21 07:53:41.500,214
2022-11-21 07:53:42.500,214
2022-11-21 07:53:43.500,213
2022-11-21 07:53:44.500,213
2022-11-21 07:53:45.500,213
2022-11-21 07:53:46.500,213
2022-11-21 07:53:47.500,213
2022-11-21 07:53:48.500,213
2022-11-21 07:53:49.500,213
2022-11-21 07:53:50.500,213
2022-11-21 07:53:51.500,213
2022-11-21 07:53:52.500,213
2022-11-21 07:53:53.500,212
2022-11-21 07:53:54.500,212
2022-11-21 07:53:55.500,212
2022-11-21 07:53:56.500,212
2022-11-21 07:53:57.500,212
2022-11-21 07:53:58.500,212
2022-11-21 07:53:59.500,212
2022-11-21 07:54:00.500,212
2022-11-21 07:54:01.500,212
2022-11-21 07:54:02.500,211
2022-11-21 07:54:03.500,211
2022-11-21 07:54:04.500,211
2022-11-21 07:54:05.500,211
2022-11-21 07:54:06.500,211
2022-11-21 07:54:07.500,211
2022-11-21 07:54:08.500,211
2022-11-21 07:54:09.500,211
2022-11-21 07:54:10.500,211
2022-11-21 07:54:11.500,210
2022-11-21 07:54:12.500,210
2022-11-21 07:54:13.500,210
2022-11-21 07:54:14.500,210
2022-11-21 07:54:15.500,210
2022-11-21 07:54:16.500,210
2022-11-21 07:54:17.500,210
2022-11-21 07:54:18.500,210
2022-11-21 07:54:19.500,210
2022-11-21 07:54:20.500,210
2022-11-21 07:54:21.500,209
2022-11-21 07:54:22.500,209
2022-11-21 07:54:23.500,209
2022-11-21 07:54:24.500,209
2022-11-21 07:54:25.500,209
2022-11-21 07:54:26.500,209
2022-11-21 07:54:27.500,209
2022-11-21 07:54:28.500,209
2022-11-21 07:54:29.500,209
2022-11-21 07:54:30.500,208
2022-11-21 07:54:31.500,208
2022-11-21 07:54:32.500,208
2022-11-21 07:54:33.500,208
2022-11-21 07:54:34.500,208
2022-11-21 07:54:35.500,208
2022-11-21 07:54:36.500,208
2022-11-21 07:54:37.500,208
2022-11-21 07:54:38.500,208
2022-11-21 07:54:39.500,207
2022-11-21 07:54:40.500,207
2022-11-21 07:54:41.500,207
2022-11-21 07:54:42.500,207
2022-11-21 07:54:43.500,207
2022-11-21 07:54:44.500,207
2022-11-21 07:54:45.500,207
2022-11-21 07:54:46.500,207
2022-11-21 07:54:47.500,207
2022-11-21 07:54:48.500,207
2022-11-21 07:54:49.500,206
2022-11-21 07:54:50.500,206
2022-11-21 07:54:51.500,206
2022-11-21 07:54:52.500,206
2022-11-21 07:54:53.500,206
2022-11-21 07:54:54.500,206
2022-11-21 07:54:55.500,206
2022-11-21 07:54:56.500,206
2022-11-21 07:54:57.500,206
2022-11-21 07:54:58.500,205
2022-11-21 07:54:59.500,205
2022-11-21 07:55:00.500,205
2022-11-21 07:55:01.500,205
2022-11-21 07:55:02.500,205
2022-11-21 07:55:03.500,205
2022-11-21 07:55:04.500,205
2022-11-21 07:55:05.500,205
2022-11-21 07:55:06.500,205
2022-11-21 07:55:07.500,204
2022-11-21 07:55:08.500,204
2022-11-21 07:55:09.500,204
2022-11-21 07:55:10.500,204
2022-11-21 07:55:11.500,204
2022-11-21 07:55:12.500,204
2022-11-21 07:55:13.500,204
2022-11-21 07:55:14.500,204
2022-11-21 07:55:15.500,204
2022-11-21 07:55:16.500,203
2022-11-21 07:55:17.500,203
2022-11-21 07:55:18.500,203
2022-11-21 07:55:19.500,203
2022-11-21 07:55:20.500,203
2022-11-21 07:55:21.500,203
2022-11-21 07:55:22.500,203
2022-11-21 07:55:23.500,203
2022-11-21 07:55:24.500,203
2022-11-21 07:55:25.500,203
2022-11-21 07:55:26.500,202
2022-11-21 07:55:27.500,202
2022-11-21 07:55:28.500,202
2022-11-21 07:55:29.500,202
2022-11-21 07:55:30.500,202
2022-11-21 07:55:31.500,202
2022-11-21 07:55:32.500,202
2022-11-21 07:55:33.500,202
2022-11-21 07:55:34.500,202
2022-11-21 07:55:35.500,201
2022-11-21 07:55:36.500,201
2022-11-21 07:55:37.500,201
2022-11-21 07:55:38.500,201
2022-11-21 07:55:39.500,201
2022-11-21 07:55:40.500,201
2022-11-21 07:55:41.500,201
2022-11-21 07:55:42.500,201
2022-11-21 07:55:43.500,201
2022-11-21 07:55:44.500,200
2022-11-21 07:55:45.500,200
2022-11-21 07:55:46.500,200
2022-11-21 07:55:47.500,200
2022-11-21 07:55:48.500,200
2022-11-21 07:55:49.500,200
2022-11-21 07:55:50.500,200
2022-11-21 07:55:51.500,200
2022-11-21 07:55:52.500,200
2022-11-21 07:55:53.500,199
2022-11-21 07:55:54.500,199
2022-11-21 07:55:55.500,199
2022-11-21 07:55:56.500,199
2022-11-21 07:55:57.500,199
2022-11-21 07:55:58.500,199
2022-11-21 07:55:59.500,199
2022-11-21 07:56:00.500,199
2022-11-21 07:56:01.500,199
2022-11-21 07:56:02.500,199
2022-11-21 07:56:03.500,198
2022-11-21 07:56:04.500,198
2022-11-21 07:56:05.500,198
2022-11-21 07:56:06.500,198
2022-11-21 07:56:07.500,198
2022-11-21 07:56:08.500,198
2022-11-21 07:56:09.500,198
2022-11-21 07:56:10.500,198
2022-11-21 07:56:11.500,198
2022-11-21 07:56:12.500,197
2022-11-21 07:56:13.500,197
2022-11-21 07:56:14.500,197
2022-11-21 07:56:15.500,197
2022-11-21 07:56:16.500,197
2022-11-21 07:56:17.500,197
2022-11-21 07:56:18.500,197
2022-11-21 07:56:19.500,197
2022-11-21 07:56:20.500,197
2022-11-21 07:56:21.500,196
2022-11-21 07:56:22.500,196
2022-11-21 07:56:23.500,196
2022-11-21 07:56:24.500,196
2022-11-21 07:56:25.500,196
2022-11-21 07:56:26.500,196
2022-11-21 07:56:27.500,196
2022-11-21 07:56:28.500,196
2022-11-21 07:56:29.500,196
2022-11-21 07:56:30.500,195
2022-11-21 07:56:31.500,195
2022-11-21 07:56:32.500,195
2022-11-21 07:56:33.500,195
2022-11-21 07:56:34.500,195
2022-11-21 07:56:35.500,195
2022-11-21 07:56:36.500,195
2022-11-21 07:56:37.500,195
2022-11-21 07:56:38.500,195
2022-11-21 07:56:39.500,195
2022-11-21 07:56:40.500,194
2022-11-21 07:56:41.500,194
2022-11-21 07:56:42.500,194
2022-11-21 07:56:43.500,194
2022-11-21 07:56:44.500,194
2022-11-21 07:56:45.500,194
2022-11-21 07:56:46.500,194
2022-11-21 07:56:47.500,194
2022-11-21 07:56:48.500,194
2022-11-21 07:56:49.500,193
2022-11-21 07:56:50.500,193
2022-11-21 07:56:51.500,193
2022-11-21 07:56:52.500,193
2022-11-21 07:56:53.500,193
2022-11-21 07:56:54.500,193
2022-11-21 07:56:55.500,193
2022-11-21 07:56:56.500,193
2022-11-21 07:56:57.500,193
2022-11-21 07:56:58.500,192
2022-11-21 07:56:59.500,192
2022-11-21 07:57:00.500,192
2022-11-21 07:57:01.500,192
2022-11-21 07:57:02.500,192
2022-11-21 07:57:03.500,192
2022-11-21 07:57:04.500,192
2022-11-21 07:57:05.500,192
2022-11-21 07:57:06.500,192
2022-11-21 07:57:07.500,191
2022-11-21 07:57:08.500,191
2022-11-21 07:57:09.500,191
2022-11-21 07:57:10.500,191
2022-11-21 07:57:11.500,191
2022-11-21 07:57:12.500,191
2022-11-21 07:57:13.500,191
2022-11-21 07:57:14.500,191
2022-11-21 07:57:15.500,191
2022-11-21 07:57:16.500,190
2022-11-21 07:57:17.500,190
2022-11-21 07:57:18.500,190
2022-11-21 07:57:19.500,190
2022-11-21 07:57:20.500,190
2022-11-21 07:57:21.500,190
2022-11-21 07:57:22.500,190
2022-11-21 07:57:23.500,190
2022-11-21 07:57:24.500,190
2022-11-21 07:57:25.500,190
2022-11-21 07:57:26.500,189
2022-11-21 07:57:27.500,189
2022-11-21 07:57:28.500,189
2022-11-21 07:57:29.500,189
2022-11-21 07:57:30.500,189
2022-11-21 07:57:31.500,189
2022-11-21 07:57:32.500,189
2022-11-21 07:57:33.500,189
2022-11-21 07:57:34.500,189
2022-11-21 07:57:35.500,188
2022-11-21 07:57:36.500,188
2022-11-21 07:57:37.500,188
2022-11-21 07:57:38.500,188
2022-11-21 07:57:39.500,188
2022-11-21 07:57:40.500,188
2022-11-21 07:57:41.500,188
2022-11-21 07:57:42.500,188
2022-11-21 07:57:43.500,188
2022-11-21 07:57:44.500,187
2022-11-21 07:57:45.500,187
2022-11-21 07:57:46.500,187
2022-11-21 07:57:47.500,187
2022-11-21 07:57:48.500,187
2022-11-21 07:57:49.500,187
2022-11-21 07:57:50.500,187
2022-11-21 07:57:51.500,187
2022-11-21 07:57:52.500,187
2022-11-21 07:57:53.500,186
2022-11-21 07:57:54.500,186
2022-11-21 07:57:55.500,186
2022-11-21 07:57:56.500,186
2022-11-21 07:57:57.500,186
2022-11-21 07:57:58.500,186
2022-11-21 07:57:59.500,186
2022-11-21 07:58:00.500,186
2022-11-21 07:58:01.500,186
2022-11-21 07:58:02.500,185
2022-11-21 07:58:03.500,185
2022-11-21 07:58:04.500,185
2022-11-21 07:58:05.500,185
2022-11-21 07:58:06.500,185
2022-11-21 07:58:07.500,185
2022-11-21 07:58:08.500,185
2022-11-21 07:58:09.500,185
2022-11-21 07:58:10.500,185
2022-11-21 07:58:11.500,185
2022-11-21 07:58:12.500,184
2022-11-21 07:58:13.500,184
2022-11-21 07:58:14.500,184
2022-11-21 07:58:15.500,184
2022-11-21 07:58:16.500,184
2022-11-21 07:58:17.500,184
2022-11-21 07:58:18.500,184
2022-11-21 07:58:19.500,184
2022-11-21 07:58:20.500,184
2022-11-21 07:58:21.500,183
2022-11-21 07:58:22.500,183
2022-11-21 07:58:23.500,183
2022-11-21 07:58:24.500,183
2022-11-21 07:58:25.500,183
2022-11-21 07:58:26.500,183
2022-11-21 07:58:27.500,183
2022-11-21 07:58:28.500,183
2022-11-21 07:58:29.500,183
2022-11-21 07:58:30.500,182
2022-11-21 07:58:31.500,182
2022-11-21 07:58:32.500,182
2022-11-21 07:58:33.500,182
2022-11-21 07:58:34.500,182
2022-11-21 07:58:35.500,182
2022-11-21 07:58:36.500,182
2022-11-21 07:58:37.500,182
2022-11-21 07:58:38.500,182
2022-11-21 07:58:39.500,181
2022-11-21 07:58:40.500,181
2022-11-21 07:58:41.500,181
2022-11-21 07:58:42.500,181
2022-11-21 07:58:43.500,181
2022-11-21 07:58:44.500,181
2022-11-21 07:58:45.500,181
2022-11-21 07:58:46.500,181
2022-11-21 07:58:47.500,181
2022-11-21 07:58:48.500,180
2022-11-21 07:58:49.500,180
2022-11-21 07:58:50.500,180
2022-11-21 07:58:51.500,180
2022-11-21 07:58:52.500,180
2022-11-21 07:58:53.500,180
2022-11-21 07:58:54.500,180
2022-11-21 07:58:55.500,180
2022-11-21 07:58:56.500,180
2022-11-21 07:58:57.500,180
2022-11-21 07:58:58.500,179
2022-11-21 07:58:59.500,179
2022-11-21 07:59:00.500,179
2022-11-21 07:59:01.500,179
2022-11-21 07:59:02.500,179
2022-11-21 07:59:03.500,179
2022-11-21 07:59:04.500,179
2022-11-21 07:59:05.500,179
2022-11-21 07:59:06.500,179
2022-11-21 07:59:07.500,179
2022-11-21 07:59:08.500,178
2022-11-21 07:59:09.500,178
2022-11-21 07:59:10.500,178
2022-11-21 07:59:11.500,178
2022-11-21 07:59:12.500,178
2022-11-21 07:59:13.500,178
2022-11-21 07:59:14.500,178
2022-11-21 07:59:15.500,178
2022-11-21 07:59:16.500,178
2022-11-21 07:59:17.500,178
2022-11-21 07:59:18.500,177
2022-11-21 07:59:19.500,177
2022-11-21 07:59:20.500,177
2022-11-21 07:59:21.500,177
2022-11-21 07:59:22.500,177
2022-11-21 07:59:23.500,177
2022-11-21 07:59:24.500,177
2022-11-21 07:59:25.500,177
2022-11-21 07:59:26.500,177
2022-11-21 07:59:27.500,177
2022-11-21 07:59:28.500,176
2022-11-21 07:59:29.500,176
2022-11-21 07:59:30.500,176
2022-11-21 07:59:31.500,176
2022-11-21 07:59:32.500,176
2022-11-21 07:59:33.500,176
2022-11-21 07:59:34.500,176
2022-11-21 07:59:35.500,176
2022-11-21 07:59:36.500,176
2022-11-21 07:59:37.500,176
2022-11-21 07:59:38.500,175
2022-11-21 07:59:39.500,175
2022-11-21 07:59:40.500,175
2022-11-21 07:59:41.500,175
2022-11-21 07:59:42.500,175
2022-11-21 07:59:43.500,175
2022-11-21 07:59:44.500,175
2022-11-21 07:59:45.500,175
2022-11-21 07:59:46.500,175
2022-11-21 07:59:47.500,175
2022-11-21 07:59:48.500,174
2022-11-21 07:59:49.500,174
2022-11-21 07:59:50.500,174
2022-11-21 07:59:51.500,174
2022-11-21 07:59:52.500,174
2022-11-21 07:59:53.500,174
2022-11-21 07:59:54.500,174
2022-11-21 07:59:55.500,174
2022-11-21 07:59:56.500,174
2022-11-21 07:59:57.500,174
2022-11-21 07:59:58.500,173
2022-11-21 07:59:59.500,173
2022-11-21 08:00:00.500,173
2022-11-21 08:00:01.500,173
2022-11-21 08:00:02.500,173
2022-11-21 08:00:03.500,173
2022-11-21 08:00:04.500,173
2022-11-21 08:00:05.500,173
2022-11-21 08:00:06.500,173
2022-11-21 08:00:07.500,173
2022-11-21 08:00:08.500,172
2022-11-21 08:00:09.500,172
2022-11-21 08:00:10.500,172
2022-11-21 08:00:11.500,172
2022-11-21 08:00:12.500,172
2022-11-21 08:00:13.500,172
2022-11-21 08:00:14.500,172
2022-11-21 08:00:15.500,172
2022-11-21 08:00:16.500,172
2022-11-21 08:00:17.500,172
2022-11-21 08:00:18.500,171
2022-11-21 08:00:19.500,171
2022-11-21 08:00:20.500,171
2022-11-21 08:00:21.500,171
2022-11-21 08:00:22.500,171
2022-11-21 08:00:23.500,171
2022-11-21 08:00:24.500,171
2022-11-21 08:00:25.500,171
2022-11-21 08:00:26.500,171
2022-11-21 08:00:27.500,171
2022-11-21 08:00:28.500,170
2022-11-21 08:00:29.500,170
2022-11-21 08:00:30.500,170
2022-11-21 08:00:31.500,170
2022-11-21 08:00:32.500,170
2022-11-21 08:00:33.500,170
2022-11-21 08:00:34.500,170
2022-11-21 08:00:35.500,170
2022-11-21 08:00:36.500,170
2022-11-21 08:00:37.500,170
2022-11-21 08:00:38.500,169
2022-11-21 08:00:39.500,169
2022-11-21 08:00:40.500,169
2022-11-21 08:00:41.500,169
2022-11-21 08:00:42.500,169
2022-11-21 08:00:43.500,169
2022-11-21 08:00:44.500,169
2022-11-21 08:00:45.500,169
2022-11-21 08:00:46.500,169
2022-11-21 08:00:47.500,169
2022-11-21 08:00:48.500,168
2022-11-21 08:00:49.500,168
2022-11-21 08:00:50.500,168
2022-11-21 08:00:51.500,168
2022-11-21 08:00:52.500,168
2022-11-21 08:00:53.500,168
2022-11-21 08:00:54.500,168
2022-11-21 08:00:55.500,168
2022-11-21 08:00:56.500,168
2022-11-21 08:00:57.500,168
2022-11-21 08:00:58.500,167
2022-11-21 08:00:59.500,167
2022-11-21 08:01:00.500,167
2022-11-21 08:01:01.500,167
2022-11-21 08:01:02.500,167
2022-11-21 08:01:03.500,167
2022-11-21 08:01:04.500,167
2022-11-21 08:01:05.500,167
2022-11-21 08:01:06.500,167
2022-11-21 08:01:07.500,167
2022-11-21 08:01:08.500,166
2022-11-21 08:01:09.500,166
2022-11-21 08:01:10.500,166
2022-11-21 08:01:11.500,166
2022-11-21 08:01:12.500,166
2022-11-21 08:01:13.500,166
2022-11-21 08:01:14.500,166
2022-11-21 08:01:15.500,166
2022-11-21 08:01:16.500,166
2022-11-21 08:01:17.500,166
2022-11-21 08:01:18.500,165
2022-11-21 08:01:19.500,165
2022-11-21 08:01:20.500,165
2022-11-21 08:01:21.500,165
2022-11-21 08:01:22.500,165
2022-11-21 08:01:23.500,165
2022-11-21 08:01:24.500,165
2022-11-21 08:01:25.500,165
2022-11-21 08:01:26.500,165
2022-11-21 08:01:27.500,165
2022-11-21 08:01:28.500,164
2022-11-21 08:01:29.500,164
2022-11-21 08:01:30.500,164
2022-11-21 08:01:31.500,164
2022-11-21 08:01:32.500,164
2022-11-21 08:01:33.500,164
2022-11-21 08:01:34.500,164
2022-11-21 08:01:35.500,164
2022-11-21 08:01:36.500,164
2022-11-21 08:01:37.500,163
2022-11-21 08:01:38.500,163
2022-11-21 08:01:39.500,163
2022-11-21 08:01:40.500,163
2022-11-21 08:01:41.500,163
2022-11-21 08:01:42.500,163
2022-11-21 08:01:43.500,163
2022-11-21 08:01:44.500,163
2022-11-21 08:01:45.500,163
2022-11-21 08:01:46.500,163
2022-11-21 08:01:47.500,162
2022-11-21 08:01:48.500,162
2022-11-21 08:01:49.500,162
2022-11-21 08:01:50.500,162
2022-11-21 08:01:51.500,162
2022-11-21 08:01:52.500,162
2022-11-21 08:01:53.500,162
2022-11-21 08:01:54.500,162
2022-11-21 08:01:55.500,162
2022-11-21 08:01:56.500,162
2022-11-21 08:01:57.500,161
2022-11-21 08:01:58.500,161
2022-11-21 08:01:59.500,161
2022-11-21 08:02:00.500,161
2022-11-21 08:02:01.500,161
2022-11-21 08:02:02.500,161
2022-11-21 08:02:03.500,161
2022-11-21 08:02:04.500,161
2022-11-21 08:02:05.500,161
2022-11-21 08:02:06.500,161
2022-11-21 08:02:07.500,160
2022-11-21 08:02:08.500,160
2022-11-21 08:02:09.500,160
2022-11-21 08:02:10.500,160
2022-11-21 08:02:11.500,160
2022-11-21 08:02:12.500,160
2022-11-21 08:02:13.500,160
2022-11-21 08:02:14.500,160
2022-11-21 08:02:15.500,160
2022-11-21 08:02:16.500,160
2022-11-21 08:02:17.500,159